Year,Month,Day,Hour,Minute,Value (Times are PST for temperature in C)
2009,07,26,00,00,17.70
2009,07,26,00,01,17.70
2009,07,26,00,02,17.70
2009,07,26,00,03,17.70
2009,07,26,00,04,17.70
2009,07,26,00,05,17.70
2009,07,26,00,06,17.70
2009,07,26,00,07,17.70
2009,07,26,00,08,17.70
2009,07,26,00,09,17.70
2009,07,26,00,10,17.70
2009,07,26,00,11,17.70
2009,07,26,00,12,17.70
2009,07,26,00,13,17.70
2009,07,26,00,14,17.70
2009,07,26,00,15,17.70
2009,07,26,00,16,17.60
2009,07,26,00,17,17.60
2009,07,26,00,18,17.60
2009,07,26,00,19,17.60
2009,07,26,00,20,17.60
2009,07,26,00,21,17.60
2009,07,26,00,22,17.60
2009,07,26,00,23,17.60
2009,07,26,00,24,17.60
2009,07,26,00,25,17.60
2009,07,26,00,26,17.60
2009,07,26,00,27,17.60
2009,07,26,00,28,17.60
2009,07,26,00,29,17.60
2009,07,26,00,30,17.60
2009,07,26,00,31,17.60
2009,07,26,00,32,17.50
2009,07,26,00,33,17.50
2009,07,26,00,34,17.50
2009,07,26,00,35,17.50
2009,07,26,00,36,17.50
2009,07,26,00,37,17.50
2009,07,26,00,38,17.50
2009,07,26,00,39,17.50
2009,07,26,00,40,17.50
2009,07,26,00,41,17.50
2009,07,26,00,42,17.40
2009,07,26,00,43,17.40
2009,07,26,00,44,17.40
2009,07,26,00,45,17.40
2009,07,26,00,46,17.40
2009,07,26,00,47,17.40
2009,07,26,00,48,17.40
2009,07,26,00,49,17.30
2009,07,26,00,50,17.30
2009,07,26,00,51,17.30
2009,07,26,00,52,17.30
2009,07,26,00,53,17.30
2009,07,26,00,54,17.30
2009,07,26,00,55,17.30
2009,07,26,00,56,17.30
2009,07,26,00,57,17.30
2009,07,26,00,58,17.30
2009,07,26,00,59,17.30
2009,07,26,01,00,17.30
2009,07,26,01,01,17.30
2009,07,26,01,02,17.30
2009,07,26,01,03,17.30
2009,07,26,01,04,17.30
2009,07,26,01,05,17.30
2009,07,26,01,06,17.30
2009,07,26,01,07,17.30
2009,07,26,01,08,17.30
2009,07,26,01,09,17.30
2009,07,26,01,10,17.30
2009,07,26,01,11,17.30
2009,07,26,01,12,17.30
2009,07,26,01,13,17.30
2009,07,26,01,14,17.30
2009,07,26,01,15,17.30
2009,07,26,01,16,17.30
2009,07,26,01,17,17.30
2009,07,26,01,18,17.30
2009,07,26,01,19,17.30
2009,07,26,01,20,17.30
2009,07,26,01,21,17.30
2009,07,26,01,22,17.30
2009,07,26,01,23,17.30
2009,07,26,01,24,17.30
2009,07,26,01,25,17.30
2009,07,26,01,26,17.30
2009,07,26,01,27,17.30
2009,07,26,01,28,17.30
2009,07,26,01,29,17.30
2009,07,26,01,30,17.30
2009,07,26,01,31,17.30
2009,07,26,01,32,17.30
2009,07,26,01,33,17.30
2009,07,26,01,34,17.30
2009,07,26,01,35,17.30
2009,07,26,01,36,17.30
2009,07,26,01,37,17.30
2009,07,26,01,38,17.30
2009,07,26,01,39,17.30
2009,07,26,01,40,17.30
2009,07,26,01,41,17.30
2009,07,26,01,42,17.30
2009,07,26,01,43,17.30
2009,07,26,01,44,17.30
2009,07,26,01,45,17.30
2009,07,26,01,46,17.30
2009,07,26,01,47,17.30
2009,07,26,01,48,17.30
2009,07,26,01,49,17.30
2009,07,26,01,50,17.30
2009,07,26,01,51,17.30
2009,07,26,01,52,17.30
2009,07,26,01,53,17.30
2009,07,26,01,54,17.30
2009,07,26,01,55,17.30
2009,07,26,01,56,17.30
2009,07,26,01,57,17.30
2009,07,26,01,58,17.30
2009,07,26,01,59,17.30
2009,07,26,02,00,17.30
2009,07,26,02,01,17.30
2009,07,26,02,02,17.30
2009,07,26,02,03,17.30
2009,07,26,02,04,17.30
2009,07,26,02,05,17.30
2009,07,26,02,06,17.30
2009,07,26,02,07,17.30
2009,07,26,02,08,17.30
2009,07,26,02,09,17.30
2009,07,26,02,10,17.30
2009,07,26,02,11,17.30
2009,07,26,02,12,17.30
2009,07,26,02,13,17.30
2009,07,26,02,14,17.30
2009,07,26,02,15,17.30
2009,07,26,02,16,17.30
2009,07,26,02,17,17.30
2009,07,26,02,18,17.30
2009,07,26,02,19,17.30
2009,07,26,02,20,17.30
2009,07,26,02,21,17.30
2009,07,26,02,22,17.30
2009,07,26,02,23,17.30
2009,07,26,02,24,17.30
2009,07,26,02,25,17.30
2009,07,26,02,26,17.30
2009,07,26,02,27,17.30
2009,07,26,02,28,17.30
2009,07,26,02,29,17.30
2009,07,26,02,30,17.30
2009,07,26,02,31,17.30
2009,07,26,02,32,17.30
2009,07,26,02,33,17.30
2009,07,26,02,34,17.30
2009,07,26,02,35,17.30
2009,07,26,02,36,17.30
2009,07,26,02,37,17.30
2009,07,26,02,38,17.30
2009,07,26,02,39,17.30
2009,07,26,02,40,17.30
2009,07,26,02,41,17.30
2009,07,26,02,42,17.30
2009,07,26,02,43,17.30
2009,07,26,02,44,17.30
2009,07,26,02,45,17.30
2009,07,26,02,46,17.30
2009,07,26,02,47,17.30
2009,07,26,02,48,17.30
2009,07,26,02,49,17.20
2009,07,26,02,50,17.30
2009,07,26,02,51,17.30
2009,07,26,02,52,17.30
2009,07,26,02,53,17.30
2009,07,26,02,54,17.30
2009,07,26,02,55,17.30
2009,07,26,02,56,17.30
2009,07,26,02,57,17.30
2009,07,26,02,58,17.30
2009,07,26,02,59,17.30
2009,07,26,03,00,17.30
2009,07,26,03,01,17.30
2009,07,26,03,02,17.30
2009,07,26,03,03,17.30
2009,07,26,03,04,17.30
2009,07,26,03,05,17.30
2009,07,26,03,06,17.30
2009,07,26,03,07,17.30
2009,07,26,03,08,17.30
2009,07,26,03,09,17.30
2009,07,26,03,10,17.30
2009,07,26,03,11,17.30
2009,07,26,03,12,17.30
2009,07,26,03,13,17.30
2009,07,26,03,14,17.30
2009,07,26,03,15,17.30
2009,07,26,03,16,17.30
2009,07,26,03,17,17.30
2009,07,26,03,18,17.30
2009,07,26,03,19,17.30
2009,07,26,03,20,17.30
2009,07,26,03,21,17.30
2009,07,26,03,22,17.30
2009,07,26,03,23,17.30
2009,07,26,03,24,17.30
2009,07,26,03,25,17.30
2009,07,26,03,26,17.30
2009,07,26,03,27,17.30
2009,07,26,03,28,17.30
2009,07,26,03,29,17.30
2009,07,26,03,30,17.30
2009,07,26,03,31,17.30
2009,07,26,03,32,17.30
2009,07,26,03,33,17.30
2009,07,26,03,34,17.30
2009,07,26,03,35,17.30
2009,07,26,03,36,17.30
2009,07,26,03,37,17.30
2009,07,26,03,38,17.30
2009,07,26,03,39,17.30
2009,07,26,03,40,17.30
2009,07,26,03,41,17.30
2009,07,26,03,42,17.30
2009,07,26,03,43,17.30
2009,07,26,03,44,17.30
2009,07,26,03,45,17.30
2009,07,26,03,46,17.30
2009,07,26,03,47,17.30
2009,07,26,03,48,17.30
2009,07,26,03,49,17.30
2009,07,26,03,50,17.30
2009,07,26,03,51,17.30
2009,07,26,03,52,17.30
2009,07,26,03,53,17.30
2009,07,26,03,54,17.30
2009,07,26,03,55,17.30
2009,07,26,03,56,17.30
2009,07,26,03,57,17.30
2009,07,26,03,58,17.30
2009,07,26,03,59,17.30
2009,07,26,04,00,17.40
2009,07,26,04,01,17.40
2009,07,26,04,02,17.40
2009,07,26,04,03,17.40
2009,07,26,04,04,17.40
2009,07,26,04,05,17.40
2009,07,26,04,06,17.40
2009,07,26,04,07,17.40
2009,07,26,04,08,17.40
2009,07,26,04,09,17.40
2009,07,26,04,10,17.40
2009,07,26,04,11,17.40
2009,07,26,04,12,17.40
2009,07,26,04,13,17.30
2009,07,26,04,14,17.30
2009,07,26,04,15,17.30
2009,07,26,04,16,17.30
2009,07,26,04,17,17.30
2009,07,26,04,18,17.30
2009,07,26,04,19,17.30
2009,07,26,04,20,17.30
2009,07,26,04,21,17.30
2009,07,26,04,22,17.30
2009,07,26,04,23,17.30
2009,07,26,04,24,17.30
2009,07,26,04,25,17.30
2009,07,26,04,26,17.30
2009,07,26,04,27,17.30
2009,07,26,04,28,17.30
2009,07,26,04,29,17.30
2009,07,26,04,30,17.30
2009,07,26,04,31,17.30
2009,07,26,04,32,17.30
2009,07,26,04,33,17.30
2009,07,26,04,34,17.30
2009,07,26,04,35,17.30
2009,07,26,04,36,17.20
2009,07,26,04,37,17.20
2009,07,26,04,38,17.20
2009,07,26,04,39,17.10
2009,07,26,04,40,17.10
2009,07,26,04,41,17.10
2009,07,26,04,42,17.10
2009,07,26,04,43,17.10
2009,07,26,04,44,17.10
2009,07,26,04,45,17.10
2009,07,26,04,46,17.10
2009,07,26,04,47,17.10
2009,07,26,04,48,17.10
2009,07,26,04,49,17.00
2009,07,26,04,50,17.00
2009,07,26,04,51,17.00
2009,07,26,04,52,17.00
2009,07,26,04,53,17.00
2009,07,26,04,54,17.00
2009,07,26,04,55,16.90
2009,07,26,04,56,16.90
2009,07,26,04,57,16.90
2009,07,26,04,58,16.90
2009,07,26,04,59,16.90
2009,07,26,05,00,16.90
2009,07,26,05,01,16.90
2009,07,26,05,02,16.90
2009,07,26,05,03,16.90
2009,07,26,05,04,16.80
2009,07,26,05,05,16.80
2009,07,26,05,06,16.80
2009,07,26,05,07,16.90
2009,07,26,05,08,16.90
2009,07,26,05,09,16.90
2009,07,26,05,10,16.80
2009,07,26,05,11,16.80
2009,07,26,05,12,16.80
2009,07,26,05,13,16.80
2009,07,26,05,14,16.80
2009,07,26,05,15,16.90
2009,07,26,05,16,16.90
2009,07,26,05,17,16.90
2009,07,26,05,18,16.90
2009,07,26,05,19,16.90
2009,07,26,05,20,16.90
2009,07,26,05,21,16.90
2009,07,26,05,22,16.90
2009,07,26,05,23,16.90
2009,07,26,05,24,16.90
2009,07,26,05,25,16.90
2009,07,26,05,26,16.90
2009,07,26,05,27,17.00
2009,07,26,05,28,17.00
2009,07,26,05,29,17.00
2009,07,26,05,30,17.00
2009,07,26,05,31,17.00
2009,07,26,05,32,17.00
2009,07,26,05,33,17.00
2009,07,26,05,34,17.00
2009,07,26,05,35,17.00
2009,07,26,05,36,17.00
2009,07,26,05,37,17.00
2009,07,26,05,38,17.00
2009,07,26,05,39,17.00
2009,07,26,05,40,17.00
2009,07,26,05,41,17.00
2009,07,26,05,42,17.00
2009,07,26,05,43,17.00
2009,07,26,05,44,17.10
2009,07,26,05,45,17.10
2009,07,26,05,46,17.10
2009,07,26,05,47,17.10
2009,07,26,05,48,17.10
2009,07,26,05,49,17.00
2009,07,26,05,50,17.00
2009,07,26,05,51,17.00
2009,07,26,05,52,17.00
2009,07,26,05,53,17.00
2009,07,26,05,54,17.00
2009,07,26,05,55,17.00
2009,07,26,05,56,16.90
2009,07,26,05,57,16.90
2009,07,26,05,58,16.90
2009,07,26,05,59,16.90
2009,07,26,06,00,16.90
2009,07,26,06,01,16.90
2009,07,26,06,02,16.90
2009,07,26,06,03,16.90
2009,07,26,06,04,16.90
2009,07,26,06,05,16.90
2009,07,26,06,06,16.90
2009,07,26,06,07,16.80
2009,07,26,06,08,16.80
2009,07,26,06,09,16.80
2009,07,26,06,10,16.80
2009,07,26,06,11,16.80
2009,07,26,06,12,16.80
2009,07,26,06,13,16.80
2009,07,26,06,14,16.80
2009,07,26,06,15,16.70
2009,07,26,06,16,16.70
2009,07,26,06,17,16.70
2009,07,26,06,18,16.70
2009,07,26,06,19,16.70
2009,07,26,06,20,16.70
2009,07,26,06,21,16.70
2009,07,26,06,22,16.70
2009,07,26,06,23,16.70
2009,07,26,06,24,16.70
2009,07,26,06,25,16.70
2009,07,26,06,26,16.70
2009,07,26,06,27,16.70
2009,07,26,06,28,16.70
2009,07,26,06,29,16.70
2009,07,26,06,30,16.70
2009,07,26,06,31,16.70
2009,07,26,06,32,16.70
2009,07,26,06,33,16.70
2009,07,26,06,34,16.70
2009,07,26,06,35,16.70
2009,07,26,06,36,16.70
2009,07,26,06,37,16.70
2009,07,26,06,38,16.70
2009,07,26,06,39,16.70
2009,07,26,06,40,16.70
2009,07,26,06,41,16.70
2009,07,26,06,42,16.70
2009,07,26,06,43,16.70
2009,07,26,06,44,16.70
2009,07,26,06,45,16.70
2009,07,26,06,46,16.70
2009,07,26,06,47,16.80
2009,07,26,06,48,16.80
2009,07,26,06,49,16.80
2009,07,26,06,50,16.90
2009,07,26,06,51,16.90
2009,07,26,06,52,16.90
2009,07,26,06,53,16.90
2009,07,26,06,54,17.00
2009,07,26,06,55,17.00
2009,07,26,06,56,17.00
2009,07,26,06,57,17.00
2009,07,26,06,58,17.10
2009,07,26,06,59,17.10
2009,07,26,07,00,17.20
2009,07,26,07,01,17.20
2009,07,26,07,02,17.30
2009,07,26,07,03,17.30
2009,07,26,07,04,17.40
2009,07,26,07,05,17.40
2009,07,26,07,06,17.50
2009,07,26,07,07,17.50
2009,07,26,07,08,17.60
2009,07,26,07,09,17.70
2009,07,26,07,10,17.70
2009,07,26,07,11,17.70
2009,07,26,07,12,17.70
2009,07,26,07,13,17.80
2009,07,26,07,14,17.80
2009,07,26,07,15,17.80
2009,07,26,07,16,17.90
2009,07,26,07,17,17.90
2009,07,26,07,18,17.90
2009,07,26,07,19,17.90
2009,07,26,07,20,17.90
2009,07,26,07,21,18.00
2009,07,26,07,22,18.10
2009,07,26,07,23,18.10
2009,07,26,07,24,18.20
2009,07,26,07,25,18.20
2009,07,26,07,26,18.20
2009,07,26,07,27,18.30
2009,07,26,07,28,18.40
2009,07,26,07,29,18.40
2009,07,26,07,30,18.50
2009,07,26,07,31,18.50
2009,07,26,07,32,18.50
2009,07,26,07,33,18.60
2009,07,26,07,34,18.60
2009,07,26,07,35,18.60
2009,07,26,07,36,18.60
2009,07,26,07,37,18.70
2009,07,26,07,38,18.70
2009,07,26,07,39,18.80
2009,07,26,07,40,18.90
2009,07,26,07,41,18.90
2009,07,26,07,42,18.90
2009,07,26,07,43,18.90
2009,07,26,07,44,18.90
2009,07,26,07,45,18.90
2009,07,26,07,46,18.90
2009,07,26,07,47,18.90
2009,07,26,07,48,18.90
2009,07,26,07,49,18.90
2009,07,26,07,50,18.90
2009,07,26,07,51,18.90
2009,07,26,07,52,18.80
2009,07,26,07,53,18.80
2009,07,26,07,54,18.80
2009,07,26,07,55,18.80
2009,07,26,07,56,18.80
2009,07,26,07,57,18.90
2009,07,26,07,58,18.90
2009,07,26,07,59,18.90
2009,07,26,08,00,18.90
2009,07,26,08,01,18.90
2009,07,26,08,02,18.90
2009,07,26,08,03,18.90
2009,07,26,08,04,18.90
2009,07,26,08,05,18.90
2009,07,26,08,06,18.90
2009,07,26,08,07,18.90
2009,07,26,08,08,18.90
2009,07,26,08,09,19.00
2009,07,26,08,10,19.10
2009,07,26,08,11,19.10
2009,07,26,08,12,19.10
2009,07,26,08,13,19.10
2009,07,26,08,14,19.10
2009,07,26,08,15,19.10
2009,07,26,08,16,19.10
2009,07,26,08,17,19.10
2009,07,26,08,18,19.10
2009,07,26,08,19,19.20
2009,07,26,08,20,19.20
2009,07,26,08,21,19.30
2009,07,26,08,22,19.30
2009,07,26,08,23,19.40
2009,07,26,08,24,19.50
2009,07,26,08,25,19.50
2009,07,26,08,26,19.60
2009,07,26,08,27,19.70
2009,07,26,08,28,19.80
2009,07,26,08,29,19.80
2009,07,26,08,30,19.90
2009,07,26,08,31,19.90
2009,07,26,08,32,20.10
2009,07,26,08,33,20.10
2009,07,26,08,34,20.20
2009,07,26,08,35,20.20
2009,07,26,08,36,20.20
2009,07,26,08,37,20.30
2009,07,26,08,38,20.40
2009,07,26,08,39,20.40
2009,07,26,08,40,20.50
2009,07,26,08,41,20.50
2009,07,26,08,42,20.50
2009,07,26,08,43,20.50
2009,07,26,08,44,20.60
2009,07,26,08,45,20.60
2009,07,26,08,46,20.70
2009,07,26,08,47,20.70
2009,07,26,08,48,20.80
2009,07,26,08,49,20.80
2009,07,26,08,50,20.90
2009,07,26,08,51,20.90
2009,07,26,08,52,20.90
2009,07,26,08,53,21.00
2009,07,26,08,54,21.00
2009,07,26,08,55,21.00
2009,07,26,08,56,21.10
2009,07,26,08,57,21.10
2009,07,26,08,58,21.10
2009,07,26,08,59,21.20
2009,07,26,09,00,21.20
2009,07,26,09,01,21.20
2009,07,26,09,02,21.20
2009,07,26,09,03,21.30
2009,07,26,09,04,21.30
2009,07,26,09,05,21.30
2009,07,26,09,06,21.30
2009,07,26,09,07,21.30
2009,07,26,09,08,21.30
2009,07,26,09,09,21.30
2009,07,26,09,10,21.30
2009,07,26,09,11,21.30
2009,07,26,09,12,21.30
2009,07,26,09,13,21.40
2009,07,26,09,14,21.40
2009,07,26,09,15,21.40
2009,07,26,09,16,21.50
2009,07,26,09,17,21.60
2009,07,26,09,18,21.60
2009,07,26,09,19,21.60
2009,07,26,09,20,21.60
2009,07,26,09,21,21.60
2009,07,26,09,22,21.60
2009,07,26,09,23,21.70
2009,07,26,09,24,21.70
2009,07,26,09,25,21.90
2009,07,26,09,26,22.00
2009,07,26,09,27,22.10
2009,07,26,09,28,22.20
2009,07,26,09,29,22.30
2009,07,26,09,30,22.30
2009,07,26,09,31,22.50
2009,07,26,09,32,22.50
2009,07,26,09,33,22.50
2009,07,26,09,34,22.50
2009,07,26,09,35,22.60
2009,07,26,09,36,22.70
2009,07,26,09,37,22.70
2009,07,26,09,38,22.80
2009,07,26,09,39,22.80
2009,07,26,09,40,22.80
2009,07,26,09,41,22.80
2009,07,26,09,42,22.90
2009,07,26,09,43,22.90
2009,07,26,09,44,22.90
2009,07,26,09,45,22.90
2009,07,26,09,46,22.90
2009,07,26,09,47,22.90
2009,07,26,09,48,22.90
2009,07,26,09,49,22.90
2009,07,26,09,50,23.00
2009,07,26,09,51,23.10
2009,07,26,09,52,23.10
2009,07,26,09,53,23.20
2009,07,26,09,54,23.30
2009,07,26,09,55,23.30
2009,07,26,09,56,23.20
2009,07,26,09,57,23.10
2009,07,26,09,58,23.10
2009,07,26,09,59,23.20
2009,07,26,10,00,23.10
2009,07,26,10,01,23.20
2009,07,26,10,02,23.20
2009,07,26,10,03,23.20
2009,07,26,10,04,23.30
2009,07,26,10,05,23.30
2009,07,26,10,06,23.30
2009,07,26,10,07,23.30
2009,07,26,10,08,23.30
2009,07,26,10,09,23.20
2009,07,26,10,10,23.20
2009,07,26,10,11,23.30
2009,07,26,10,12,23.30
2009,07,26,10,13,23.30
2009,07,26,10,14,23.30
2009,07,26,10,15,23.30
2009,07,26,10,16,23.30
2009,07,26,10,17,23.30
2009,07,26,10,18,23.30
2009,07,26,10,19,23.30
2009,07,26,10,20,23.30
2009,07,26,10,21,23.30
2009,07,26,10,22,23.40
2009,07,26,10,23,23.40
2009,07,26,10,24,23.40
2009,07,26,10,25,23.50
2009,07,26,10,26,23.60
2009,07,26,10,27,23.70
2009,07,26,10,28,23.70
2009,07,26,10,29,23.70
2009,07,26,10,30,23.70
2009,07,26,10,31,23.70
2009,07,26,10,32,23.70
2009,07,26,10,33,23.70
2009,07,26,10,34,23.70
2009,07,26,10,35,23.70
2009,07,26,10,36,23.60
2009,07,26,10,37,23.50
2009,07,26,10,38,23.40
2009,07,26,10,39,23.40
2009,07,26,10,40,23.50
2009,07,26,10,41,23.60
2009,07,26,10,42,23.70
2009,07,26,10,43,23.70
2009,07,26,10,44,23.70
2009,07,26,10,45,23.70
2009,07,26,10,46,23.80
2009,07,26,10,47,23.80
2009,07,26,10,48,23.90
2009,07,26,10,49,23.80
2009,07,26,10,50,23.80
2009,07,26,10,51,23.90
2009,07,26,10,52,24.00
2009,07,26,10,53,24.10
2009,07,26,10,54,24.10
2009,07,26,10,55,24.10
2009,07,26,10,56,24.10
2009,07,26,10,57,24.10
2009,07,26,10,58,24.10
2009,07,26,10,59,24.20
2009,07,26,11,00,24.30
2009,07,26,11,01,24.30
2009,07,26,11,02,24.40
2009,07,26,11,03,24.40
2009,07,26,11,04,24.40
2009,07,26,11,05,24.50
2009,07,26,11,06,24.50
2009,07,26,11,07,24.60
2009,07,26,11,08,24.70
2009,07,26,11,09,24.70
2009,07,26,11,10,24.70
2009,07,26,11,11,24.80
2009,07,26,11,12,24.80
2009,07,26,11,13,24.90
2009,07,26,11,14,25.00
2009,07,26,11,15,25.00
2009,07,26,11,16,25.00
2009,07,26,11,17,24.90
2009,07,26,11,18,25.00
2009,07,26,11,19,25.00
2009,07,26,11,20,25.10
2009,07,26,11,21,25.10
2009,07,26,11,22,25.10
2009,07,26,11,23,25.10
2009,07,26,11,24,25.10
2009,07,26,11,25,25.10
2009,07,26,11,26,25.00
2009,07,26,11,27,25.00
2009,07,26,11,28,24.90
2009,07,26,11,29,25.00
2009,07,26,11,30,25.10
2009,07,26,11,31,25.20
2009,07,26,11,32,25.20
2009,07,26,11,33,25.20
2009,07,26,11,34,25.30
2009,07,26,11,35,25.40
2009,07,26,11,36,25.50
2009,07,26,11,37,25.50
2009,07,26,11,38,25.60
2009,07,26,11,39,25.50
2009,07,26,11,40,25.40
2009,07,26,11,41,25.30
2009,07,26,11,42,25.30
2009,07,26,11,43,25.20
2009,07,26,11,44,25.20
2009,07,26,11,45,25.30
2009,07,26,11,46,25.30
2009,07,26,11,47,25.30
2009,07,26,11,48,25.30
2009,07,26,11,49,25.30
2009,07,26,11,50,25.30
2009,07,26,11,51,25.30
2009,07,26,11,52,25.20
2009,07,26,11,53,25.10
2009,07,26,11,54,25.10
2009,07,26,11,55,25.00
2009,07,26,11,56,25.10
2009,07,26,11,57,25.20
2009,07,26,11,58,25.10
2009,07,26,11,59,25.10
2009,07,26,12,00,25.10
2009,07,26,12,01,25.20
2009,07,26,12,02,25.30
2009,07,26,12,03,25.40
2009,07,26,12,04,25.40
2009,07,26,12,05,25.40
2009,07,26,12,06,25.50
2009,07,26,12,07,25.50
2009,07,26,12,08,25.40
2009,07,26,12,09,25.40
2009,07,26,12,10,25.40
2009,07,26,12,11,25.40
2009,07,26,12,12,25.40
2009,07,26,12,13,25.50
2009,07,26,12,14,25.60
2009,07,26,12,15,25.70
2009,07,26,12,16,25.70
2009,07,26,12,17,25.80
2009,07,26,12,18,25.90
2009,07,26,12,19,25.90
2009,07,26,12,20,26.00
2009,07,26,12,21,26.00
2009,07,26,12,22,26.10
2009,07,26,12,23,26.20
2009,07,26,12,24,26.20
2009,07,26,12,25,26.20
2009,07,26,12,26,26.20
2009,07,26,12,27,26.20
2009,07,26,12,28,26.20
2009,07,26,12,29,26.20
2009,07,26,12,30,26.20
2009,07,26,12,31,26.10
2009,07,26,12,32,26.10
2009,07,26,12,33,26.10
2009,07,26,12,34,26.00
2009,07,26,12,35,26.00
2009,07,26,12,36,25.90
2009,07,26,12,37,25.80
2009,07,26,12,38,25.80
2009,07,26,12,39,25.80
2009,07,26,12,40,25.90
2009,07,26,12,41,25.90
2009,07,26,12,42,25.90
2009,07,26,12,43,26.00
2009,07,26,12,44,26.10
2009,07,26,12,45,26.10
2009,07,26,12,46,26.20
2009,07,26,12,47,26.20
2009,07,26,12,48,26.20
2009,07,26,12,49,26.30
2009,07,26,12,50,26.20
2009,07,26,12,51,26.30
2009,07,26,12,52,26.30
2009,07,26,12,53,26.40
2009,07,26,12,54,26.40
2009,07,26,12,55,26.50
2009,07,26,12,56,26.60
2009,07,26,12,57,26.60
2009,07,26,12,58,26.60
2009,07,26,12,59,26.60
2009,07,26,13,00,26.70
2009,07,26,13,01,26.80
2009,07,26,13,02,26.90
2009,07,26,13,03,27.00
2009,07,26,13,04,27.10
2009,07,26,13,05,27.10
2009,07,26,13,06,27.10
2009,07,26,13,07,27.10
2009,07,26,13,08,27.10
2009,07,26,13,09,27.00
2009,07,26,13,10,26.90
2009,07,26,13,11,26.90
2009,07,26,13,12,26.90
2009,07,26,13,13,26.90
2009,07,26,13,14,26.90
2009,07,26,13,15,26.90
2009,07,26,13,16,26.80
2009,07,26,13,17,26.70
2009,07,26,13,18,26.70
2009,07,26,13,19,26.70
2009,07,26,13,20,26.70
2009,07,26,13,21,26.80
2009,07,26,13,22,26.90
2009,07,26,13,23,27.00
2009,07,26,13,24,27.10
2009,07,26,13,25,27.20
2009,07,26,13,26,27.20
2009,07,26,13,27,27.30
2009,07,26,13,28,27.30
2009,07,26,13,29,27.40
2009,07,26,13,30,27.50
2009,07,26,13,31,27.60
2009,07,26,13,32,27.60
2009,07,26,13,33,27.60
2009,07,26,13,34,27.60
2009,07,26,13,35,27.70
2009,07,26,13,36,27.70
2009,07,26,13,37,27.70
2009,07,26,13,38,27.60
2009,07,26,13,39,27.60
2009,07,26,13,40,27.60
2009,07,26,13,41,27.60
2009,07,26,13,42,27.70
2009,07,26,13,43,27.70
2009,07,26,13,44,27.70
2009,07,26,13,45,27.80
2009,07,26,13,46,27.80
2009,07,26,13,47,27.90
2009,07,26,13,48,28.00
2009,07,26,13,49,28.00
2009,07,26,13,50,28.00
2009,07,26,13,51,27.90
2009,07,26,13,52,27.90
2009,07,26,13,53,27.90
2009,07,26,13,54,27.90
2009,07,26,13,55,27.90
2009,07,26,13,56,27.90
2009,07,26,13,57,27.90
2009,07,26,13,58,27.80
2009,07,26,13,59,27.80
2009,07,26,14,00,27.80
2009,07,26,14,01,27.80
2009,07,26,14,02,27.80
2009,07,26,14,03,27.60
2009,07,26,14,04,27.60
2009,07,26,14,05,27.60
2009,07,26,14,06,27.60
2009,07,26,14,07,27.50
2009,07,26,14,08,27.60
2009,07,26,14,09,27.60
2009,07,26,14,10,27.60
2009,07,26,14,11,27.70
2009,07,26,14,12,27.70
2009,07,26,14,13,27.80
2009,07,26,14,14,27.90
2009,07,26,14,15,27.90
2009,07,26,14,16,28.00
2009,07,26,14,17,28.10
2009,07,26,14,18,28.20
2009,07,26,14,19,28.20
2009,07,26,14,20,28.30
2009,07,26,14,21,28.40
2009,07,26,14,22,28.50
2009,07,26,14,23,28.60
2009,07,26,14,24,28.70
2009,07,26,14,25,28.80
2009,07,26,14,26,28.80
2009,07,26,14,27,28.90
2009,07,26,14,28,28.90
2009,07,26,14,29,28.90
2009,07,26,14,30,28.90
2009,07,26,14,31,28.90
2009,07,26,14,32,28.90
2009,07,26,14,33,28.90
2009,07,26,14,34,28.90
2009,07,26,14,35,28.80
2009,07,26,14,36,28.80
2009,07,26,14,37,28.80
2009,07,26,14,38,28.90
2009,07,26,14,39,28.80
2009,07,26,14,40,28.80
2009,07,26,14,41,28.80
2009,07,26,14,42,28.70
2009,07,26,14,43,28.60
2009,07,26,14,44,28.50
2009,07,26,14,45,28.40
2009,07,26,14,46,28.40
2009,07,26,14,47,28.40
2009,07,26,14,48,28.30
2009,07,26,14,49,28.30
2009,07,26,14,50,28.20
2009,07,26,14,51,28.10
2009,07,26,14,52,28.10
2009,07,26,14,53,28.10
2009,07,26,14,54,28.10
2009,07,26,14,55,28.10
2009,07,26,14,56,28.20
2009,07,26,14,57,28.30
2009,07,26,14,58,28.40
2009,07,26,14,59,28.50
2009,07,26,15,00,28.60
2009,07,26,15,01,28.60
2009,07,26,15,02,28.60
2009,07,26,15,03,28.50
2009,07,26,15,04,28.40
2009,07,26,15,05,28.40
2009,07,26,15,06,28.40
2009,07,26,15,07,28.40
2009,07,26,15,08,28.40
2009,07,26,15,09,28.30
2009,07,26,15,10,28.20
2009,07,26,15,11,28.10
2009,07,26,15,12,28.10
2009,07,26,15,13,28.10
2009,07,26,15,14,28.10
2009,07,26,15,15,28.10
2009,07,26,15,16,28.20
2009,07,26,15,17,28.20
2009,07,26,15,18,28.30
2009,07,26,15,19,28.20
2009,07,26,15,20,28.20
2009,07,26,15,21,28.20
2009,07,26,15,22,28.30
2009,07,26,15,23,28.40
2009,07,26,15,24,28.40
2009,07,26,15,25,28.40
2009,07,26,15,26,28.50
2009,07,26,15,27,28.60
2009,07,26,15,28,28.50
2009,07,26,15,29,28.40
2009,07,26,15,30,28.40
2009,07,26,15,31,28.40
2009,07,26,15,32,28.40
2009,07,26,15,33,28.40
2009,07,26,15,34,28.40
2009,07,26,15,35,28.30
2009,07,26,15,36,28.30
2009,07,26,15,37,28.30
2009,07,26,15,38,28.30
2009,07,26,15,39,28.30
2009,07,26,15,40,28.20
2009,07,26,15,41,28.20
2009,07,26,15,42,28.10
2009,07,26,15,43,28.00
2009,07,26,15,44,28.00
2009,07,26,15,45,28.00
2009,07,26,15,46,28.00
2009,07,26,15,47,28.00
2009,07,26,15,48,28.00
2009,07,26,15,49,28.00
2009,07,26,15,50,28.00
2009,07,26,15,51,28.00
2009,07,26,15,52,28.00
2009,07,26,15,53,28.00
2009,07,26,15,54,27.90
2009,07,26,15,55,27.90
2009,07,26,15,56,27.90
2009,07,26,15,57,27.90
2009,07,26,15,58,28.00
2009,07,26,15,59,28.00
2009,07,26,16,00,28.00
2009,07,26,16,01,27.90
2009,07,26,16,02,27.90
2009,07,26,16,03,27.90
2009,07,26,16,04,27.90
2009,07,26,16,05,27.90
2009,07,26,16,06,27.90
2009,07,26,16,07,27.90
2009,07,26,16,08,27.90
2009,07,26,16,09,27.90
2009,07,26,16,10,27.90
2009,07,26,16,11,27.90
2009,07,26,16,12,27.90
2009,07,26,16,13,27.90
2009,07,26,16,14,27.90
2009,07,26,16,15,27.90
2009,07,26,16,16,27.80
2009,07,26,16,17,27.80
2009,07,26,16,18,27.80
2009,07,26,16,19,27.80
2009,07,26,16,20,27.80
2009,07,26,16,21,27.80
2009,07,26,16,22,27.80
2009,07,26,16,23,27.80
2009,07,26,16,24,27.80
2009,07,26,16,25,27.70
2009,07,26,16,26,27.70
2009,07,26,16,27,27.60
2009,07,26,16,28,27.50
2009,07,26,16,29,27.40
2009,07,26,16,30,27.30
2009,07,26,16,31,27.30
2009,07,26,16,32,27.30
2009,07,26,16,33,27.30
2009,07,26,16,34,27.30
2009,07,26,16,35,27.30
2009,07,26,16,36,27.30
2009,07,26,16,37,27.30
2009,07,26,16,38,27.20
2009,07,26,16,39,27.20
2009,07,26,16,40,27.20
2009,07,26,16,41,27.20
2009,07,26,16,42,27.20
2009,07,26,16,43,27.20
2009,07,26,16,44,27.20
2009,07,26,16,45,27.20
2009,07,26,16,46,27.20
2009,07,26,16,47,27.20
2009,07,26,16,48,27.20
2009,07,26,16,49,27.20
2009,07,26,16,50,27.20
2009,07,26,16,51,27.20
2009,07,26,16,52,27.10
2009,07,26,16,53,27.10
2009,07,26,16,54,27.10
2009,07,26,16,55,27.10
2009,07,26,16,56,27.00
2009,07,26,16,57,26.90
2009,07,26,16,58,26.90
2009,07,26,16,59,26.90
2009,07,26,17,00,26.90
2009,07,26,17,01,26.90
2009,07,26,17,02,26.90
2009,07,26,17,03,26.90
2009,07,26,17,04,26.90
2009,07,26,17,05,26.90
2009,07,26,17,06,26.90
2009,07,26,17,07,26.90
2009,07,26,17,08,26.90
2009,07,26,17,09,26.90
2009,07,26,17,10,26.90
2009,07,26,17,11,26.90
2009,07,26,17,12,26.90
2009,07,26,17,13,26.90
2009,07,26,17,14,26.80
2009,07,26,17,15,26.80
2009,07,26,17,16,26.80
2009,07,26,17,17,26.70
2009,07,26,17,18,26.70
2009,07,26,17,19,26.70